Location: ?????oe
(44.4874°N, 135.7046°E)
Time: 16:34:25
(UTC+00:00)

SKYMED 2 - Pass Details

Date: 13 December 2025
Orbit: 622 x 623 km, 97.9° (Epoch: 16 January)

Event Time Altitude Azimuth Distance (km) Brightness Sun altitude
Rises 20:21:21 0° 174° (S) 2,891 7.2 -21.3°
Reaches altitude 10° 20:23:33 10° 178° (S) 1,989 6.3 -20.9°
Maximum altitude 20:27:50 61° 259° (W) 712 3.5 -20.1°
Enters shadow 20:29:02 43° 317° (NW) 884 3.9 -19.9°
